Leesburg, VA

10:26 AM EDT on October 19, 2019 (GMT -0400)
Leesburg Executive

Weather History for KJYO - May, 2019

Change the Weather History Date:

Monday, May 13, 2019

  Actual Average (KIAD) Record (KIAD)
Temperature  
Mean Temperature 48 °F -  
Max Temperature 53 °F 74 °F 92 °F (2000)
Min Temperature 44 °F 49 °F 32 °F (1976)
Degree Days  
Heating Degree Days 16    
Moisture  
Dew Point 47 °F    
Average Humidity 99    
Maximum Humidity 100    
Minimum Humidity 88    
Precipitation  
Precipitation 0.00 in - - ()
Sea Level Pressure  
Sea Level Pressure 29.82 in    
Wind  
Wind Speed 5 mph (NE)    
Max Wind Speed 9 mph    
Max Gust Speed -    
Visibility 8 miles    
Events      
Averages and records for this station are not official NWS values.
T = Trace of Precipitation, MM = Missing Value Source: NWS Daily Summary

Daily Weather History Graph

Daily Weather History Graph

Search for Another Location

Airport or City:

Astronomy

May. 13, 2019 Rise Set
Actual Time 5:59 AM EDT 8:14 PM EDT
Civil Twilight 5:29 AM EDT 8:44 PM EDT
Nautical Twilight 4:52 AM EDT 9:21 PM EDT
Astronomical Twilight 4:12 AM EDT 10:01 PM EDT
Moon 2:27 PM EDT (5/13) 3:12 AM EDT (5/13)
Length of Visible Light 15h 14m
Length of Day
14h 15m
Waxing Gibbous, 68% of the Moon is Illuminated
May 13
Waxing Gibbous
May 18
Full
May 26
Last Quarter
Jun 3
New
Jun 10
First Quarter

Hourly Weather History & Observations

Time (EDT) Temp. Windchill Dew Point Humidity Pressure Visibility Wind Dir Wind Speed Gust Speed Precip Events Conditions
12:15 AM 44.6 °F 39.7 °F 44.6 °F 100% 29.84 in 7.0 mi ENE 9.2 mph - N/A   Overcast
12:35 AM 44.6 °F 42.2 °F 44.6 °F 100% 29.85 in 7.0 mi ENE 4.6 mph - N/A   Overcast
12:55 AM 44.6 °F 39.7 °F 44.6 °F 100% 29.83 in 10.0 mi ENE 9.2 mph - N/A   Overcast
1:15 AM 44.6 °F 40.2 °F 44.6 °F 100% 29.85 in 7.0 mi NE 8.1 mph - N/A   Overcast
1:35 AM 44.6 °F 40.7 °F 44.6 °F 100% 29.85 in 7.0 mi NE 6.9 mph - N/A   Overcast
1:55 AM 44.6 °F 40.7 °F 44.6 °F 100% 29.84 in 4.0 mi ENE 6.9 mph - N/A   Overcast
2:15 AM 44.6 °F 41.4 °F 44.6 °F 100% 29.84 in 4.0 mi NE 5.8 mph - N/A   Overcast
2:35 AM 44.6 °F 43.1 °F 44.6 °F 100% 29.83 in 5.0 mi ENE 3.5 mph - N/A   Overcast
2:55 AM 44.6 °F 42.2 °F 44.6 °F 100% 29.83 in 10.0 mi ENE 4.6 mph - N/A   Overcast
3:15 AM 44.6 °F 41.4 °F 44.6 °F 100% 29.82 in 7.0 mi ENE 5.8 mph - N/A   Overcast
3:35 AM 44.6 °F 43.1 °F 44.6 °F 100% 29.82 in 10.0 mi ENE 3.5 mph - N/A   Overcast
3:55 AM 44.6 °F 42.2 °F 44.6 °F 100% 29.83 in 10.0 mi NE 4.6 mph - N/A   Overcast
4:15 AM 44.6 °F 41.4 °F 44.6 °F 100% 29.83 in 10.0 mi NE 5.8 mph - N/A   Overcast
4:35 AM 44.6 °F 41.4 °F 44.6 °F 100% 29.82 in 10.0 mi ENE 5.8 mph - N/A   Overcast
4:55 AM 44.6 °F 41.4 °F 44.6 °F 100% 29.80 in 10.0 mi ENE 5.8 mph - N/A   Overcast
5:15 AM 44.6 °F - 44.6 °F 100% 29.82 in 10.0 mi Calm Calm - N/A   Overcast
5:35 AM 44.6 °F 43.1 °F 44.6 °F 100% 29.82 in 10.0 mi ENE 3.5 mph - N/A   Overcast
5:55 AM 44.6 °F - 44.6 °F 100% 29.81 in 10.0 mi Calm Calm - N/A   Overcast
6:15 AM 44.6 °F 43.1 °F 44.6 °F 100% 29.82 in 10.0 mi ENE 3.5 mph - N/A   Overcast
6:35 AM 44.6 °F 42.2 °F 44.6 °F 100% 29.83 in 10.0 mi ENE 4.6 mph - N/A   Overcast
6:55 AM 44.6 °F 43.1 °F 44.6 °F 100% 29.83 in 10.0 mi NE 3.5 mph - N/A   Overcast
7:15 AM 44.6 °F 40.7 °F 44.6 °F 100% 29.83 in 5.0 mi ENE 6.9 mph - N/A   Overcast
7:35 AM 44.6 °F 42.2 °F 44.6 °F 100% 29.83 in 4.0 mi ENE 4.6 mph - N/A   Overcast
7:55 AM 44.6 °F 41.4 °F 44.6 °F 100% 29.82 in 4.0 mi ENE 5.8 mph - N/A   Overcast
8:15 AM 44.6 °F - 44.6 °F 100% 29.82 in 3.0 mi Calm Calm - N/A   Overcast
8:35 AM 44.6 °F 42.2 °F 44.6 °F 100% 29.82 in 7.0 mi NE 4.6 mph - N/A   Overcast
8:55 AM 44.6 °F - 44.6 °F 100% 29.83 in 4.0 mi Calm Calm - N/A   Overcast
9:15 AM 44.6 °F 43.1 °F 44.6 °F 100% 29.83 in 2.0 mi NE 3.5 mph - N/A   Overcast
9:35 AM 44.6 °F - 44.6 °F 100% 29.82 in 2.5 mi Calm Calm - N/A   Overcast
9:55 AM 44.6 °F 40.7 °F 44.6 °F 100% 29.80 in 0.5 mi East 6.9 mph - N/A   Overcast
10:15 AM 44.6 °F 40.7 °F 44.6 °F 100% 29.80 in 4.0 mi NE 6.9 mph - N/A   Overcast
10:35 AM 46.4 °F 43.5 °F 46.4 °F 100% 29.81 in 10.0 mi NNE 5.8 mph - N/A   Overcast
10:55 AM 46.4 °F 42.9 °F 46.4 °F 100% 29.81 in 10.0 mi NNE 6.9 mph - N/A   Overcast
11:15 AM 46.4 °F 43.5 °F 46.4 °F 100% 29.83 in 10.0 mi North 5.8 mph - N/A   Overcast
11:35 AM 46.4 °F 42.9 °F 46.4 °F 100% 29.85 in 2.0 mi NW 6.9 mph - N/A   Overcast
11:55 AM 46.4 °F 44.3 °F 46.4 °F 100% 29.81 in 5.0 mi ESE 4.6 mph - N/A   Overcast
12:15 PM 46.4 °F 43.5 °F 46.4 °F 100% 29.80 in 5.0 mi ENE 5.8 mph - N/A   Overcast
12:35 PM 46.4 °F 43.5 °F 46.4 °F 100% 29.80 in 7.0 mi NE 5.8 mph - N/A   Overcast
12:55 PM 46.4 °F - 46.4 °F 100% 29.81 in 10.0 mi Calm Calm - N/A   Overcast
1:15 PM 46.4 °F - 46.4 °F 100% 29.81 in 10.0 mi Calm Calm - N/A   Overcast
1:35 PM 48.2 °F - 48.2 °F 100% 29.80 in 10.0 mi Calm Calm - N/A   Overcast
1:55 PM 48.2 °F - 48.2 °F 100% 29.80 in 10.0 mi North 6.9 mph - N/A   Overcast
2:15 PM 50.0 °F - 48.2 °F 94% 29.80 in 10.0 mi North 4.6 mph - N/A   Overcast
2:30 PM 50.0 °F - 48.2 °F 94% 29.80 in 10.0 mi NE 3.5 mph - N/A   Overcast
2:50 PM 50.0 °F - 48.2 °F 94% 29.80 in 10.0 mi Calm Calm - N/A   Overcast
3:15 PM 50.0 °F - 50.0 °F 100% 29.80 in 5.0 mi NE 3.5 mph - N/A   Overcast
3:35 PM 50.0 °F - 50.0 °F 100% 29.79 in 7.0 mi Calm Calm - N/A   Overcast
3:55 PM 50.0 °F - 50.0 °F 100% 29.79 in 10.0 mi Calm Calm - N/A   Overcast
4:15 PM 51.8 °F - 50.0 °F 94% 29.79 in 10.0 mi Calm Calm - N/A   Overcast
4:35 PM 51.8 °F - 50.0 °F 94% 29.78 in 10.0 mi NE 5.8 mph - N/A   Overcast
4:55 PM 51.8 °F - 50.0 °F 94% 29.79 in 10.0 mi ENE 4.6 mph - N/A   Overcast
5:15 PM 51.8 °F - 50.0 °F 94% 29.79 in 10.0 mi ENE 3.5 mph - N/A   Overcast
5:35 PM 51.8 °F - 50.0 °F 94% 29.79 in 10.0 mi East 3.5 mph - N/A   Overcast
5:55 PM 51.8 °F - 50.0 °F 94% 29.79 in 10.0 mi NE 4.6 mph - N/A   Overcast
6:15 PM 53.6 °F - 50.0 °F 88% 29.79 in 10.0 mi NE 4.6 mph - N/A   Scattered Clouds
6:35 PM 53.6 °F - 51.8 °F 94% 29.80 in 10.0 mi NE 4.6 mph - N/A   Mostly Cloudy
6:55 PM 53.6 °F - 50.0 °F 88% 29.80 in 10.0 mi Calm Calm - N/A   Overcast
7:15 PM 51.8 °F - 50.0 °F 94% 29.80 in 10.0 mi ENE 4.6 mph - N/A   Overcast
7:35 PM 51.8 °F - 50.0 °F 94% 29.81 in 10.0 mi Calm Calm - N/A   Scattered Clouds
7:55 PM 51.8 °F - 51.8 °F 100% 29.83 in 10.0 mi Calm Calm - N/A   Mostly Cloudy
8:15 PM 51.8 °F - 50.0 °F 94% 29.83 in 10.0 mi NE 4.6 mph - N/A   Overcast
8:35 PM 51.8 °F - 50.0 °F 94% 29.83 in 10.0 mi Calm Calm - N/A   Overcast
8:55 PM 50.0 °F - 50.0 °F 100% 29.83 in 10.0 mi Calm Calm - N/A   Overcast
9:15 PM 50.0 °F - 50.0 °F 100% 29.84 in 10.0 mi Calm Calm - N/A   Mostly Cloudy
9:35 PM 48.2 °F - 48.2 °F 100% 29.84 in 10.0 mi WSW 4.6 mph - N/A   Scattered Clouds
9:55 PM 48.2 °F - 48.2 °F 100% 29.85 in 7.0 mi Calm Calm - N/A   Mostly Cloudy
10:10 PM 48.2 °F - 48.2 °F 100% 29.85 in 10.0 mi Calm Calm - N/A   Overcast
10:35 PM 48.2 °F - 48.2 °F 100% 29.86 in 10.0 mi Calm Calm - N/A   Overcast
10:55 PM 46.4 °F - 46.4 °F 100% 29.86 in 10.0 mi Calm Calm - N/A   Mostly Cloudy
11:15 PM 46.4 °F - 46.4 °F 100% 29.86 in 10.0 mi Calm Calm - N/A   Mostly Cloudy
11:35 PM 48.2 °F - 48.2 °F 100% 29.86 in 10.0 mi South 3.5 mph - N/A   Overcast
11:55 PM 48.2 °F - 48.2 °F 100% 29.85 in 10.0 mi Calm Calm - N/A   Overcast